Tracking 19795 objects as of 19-Jul-2019
HD Live streaming from Space Station
objects crossing your sky now

COSMOS 1275 DEB

Track COSMOS 1275 DEB now!
10-day predictions


NORAD ID: 42181
Int'l Code: 1981-053SV
Perigee: 893.1 km
Apogee: 992.1 km
Inclination: 82.9 °
Period: 103.7 minutes
Semi major axis: 7313 km
RCS: Unknown
Launch date: June 4, 1981
Source: Commonwealth of Independent States (former USSR) (CIS)
Launch site: PLESETSK MISSILE AND SPACE COMPLEX (PKMTR)

Note: This is SATELLITE DEBRIS
aabbcc
Your satellite tracking list
Your tracking list is empty




NASA's NSSDC Master Catalog

Two Line Element Set (TLE):
1 42181U 81053SV  19192.76700267  .00000369  00000-0  29113-3 0  9997
2 42181  82.9109 206.5201 0067724 148.0726 214.5970 13.88049611727079
Source of the keplerian elements: AFSPC